Alturas, CA

10:09 PM PST on December 10, 2019 (GMT -0800)
Alturas Municipal

Weather History for KAAT - October, 2019

Change the Weather History Date:

Monday, October 21, 2019

  Actual Average Record
Temperature  
Mean Temperature 44 °F 45 °F  
Max Temperature 63 °F 63 °F 86 °F (2003)
Min Temperature 26 °F 28 °F 8 °F (1996)
Degree Days  
Heating Degree Days 20 20  
Month to date heating degree days 439 348  
Since 1 July heating degree days 745 725  
Cooling Degree Days 0 0  
Month to date cooling degree days 0 0  
Year to date cooling degree days 217 156  
Moisture  
Dew Point 31 °F    
Average Humidity 84    
Maximum Humidity 100    
Minimum Humidity 34    
Precipitation  
Precipitation 0.00 in 0.03 in 0.37 in (1943)
Month to date precipitation 0.31 0.56  
Year to date precipitation 12.54 10.22  
Sea Level Pressure  
Sea Level Pressure 30.34 in    
Wind  
Wind Speed 1 mph ()    
Max Wind Speed 12 mph    
Max Gust Speed 13 mph    
Visibility 5.4 miles    
Events Fog    
T = Trace of Precipitation, MM = Missing Value Source: Averaged Metar Reports

Daily Weather History Graph

Daily Weather History Graph

Search for Another Location

Airport or City:

Astronomy

Oct. 21, 2019 Rise Set
Actual Time 7:20 AM PDT 6:12 PM PDT
Civil Twilight 6:52 AM PDT 6:40 PM PDT
Nautical Twilight 6:20 AM PDT 7:12 PM PDT
Astronomical Twilight 5:48 AM PDT 7:44 PM PDT
Moon No Moon Rise 2:45 PM PDT (10/21)
Length of Visible Light 11h 47m
Length of Day
10h 51m
Waning Gibbous, 47% of the Moon is Illuminated
Oct 21
Waning Gibbous
Oct 27
New
Nov 4
First Quarter
Nov 12
Full
Nov 19
Last Quarter

Hourly Weather History & Observations

Time (PDT) Temp. Windchill Dew Point Humidity Pressure Visibility Wind Dir Wind Speed Gust Speed Precip Events Conditions
12:55 AM 35.1 °F - 34.0 °F 96% 30.26 in 6.0 mi Calm Calm - N/A   Clear
1:53 AM 30.2 °F - 30.2 °F 100% 30.27 in 1.8 mi Calm Calm - N/A   Clear
1:55 AM 30.9 °F - 28.9 °F 92% 30.28 in 1.2 mi Calm Calm - N/A   Clear
2:03 AM 30.0 °F - 28.9 °F 96% 30.28 in 0.8 mi Calm Calm - N/A   Mist
2:06 AM 30.0 °F - 28.9 °F 96% 30.28 in 1.2 mi Calm Calm - N/A   Partly Cloudy
2:12 AM 30.0 °F - 28.9 °F 96% 30.27 in 4.0 mi Calm Calm - N/A   Partly Cloudy
2:55 AM 32.0 °F 25.6 °F 30.9 °F 96% 30.29 in 6.0 mi East 6.9 mph - N/A   Clear
3:55 AM 30.0 °F - 28.0 °F 92% 30.30 in 9.0 mi Calm Calm - N/A   Clear
4:25 AM 30.0 °F - 28.9 °F 96% 30.30 in 1.8 mi Calm Calm - N/A   Clear
4:38 AM 28.9 °F - 28.9 °F 100% 30.30 in 0.8 mi Calm Calm - N/A   Clear
4:53 AM 28.4 °F - 28.4 °F 100% 30.31 in 1.0 mi Calm Calm - N/A   Mist
4:55 AM 28.0 °F - 27.0 °F 96% 30.32 in 1.2 mi Calm Calm - N/A   Partly Cloudy
4:58 AM 28.9 °F - 27.0 °F 92% 30.31 in 3.0 mi Calm Calm - N/A   Partly Cloudy
5:15 AM 27.0 °F - 27.0 °F 100% 30.31 in 8.0 mi Calm Calm - N/A   Mostly Cloudy
5:30 AM 28.0 °F - 27.0 °F 96% 30.31 in 0.8 mi Calm Calm - N/A   Mist
5:47 AM 28.9 °F - 28.9 °F 100% 30.31 in 1.0 mi Calm Calm - N/A   Mostly Cloudy
5:51 AM 30.2 °F 26.7 °F 28.4 °F 93% 30.32 in 3.0 mi ESE 3.5 mph - N/A   Mostly Cloudy
5:55 AM 30.0 °F - 28.9 °F 96% 30.34 in 5.0 mi Calm Calm - N/A   Mostly Cloudy
6:53 AM 26.6 °F - 26.6 °F 100% 30.35 in 3.0 mi Calm Calm - N/A   Mostly Cloudy
6:55 AM 27.0 °F - 26.1 °F 96% 30.37 in 3.0 mi Calm Calm - N/A   Mostly Cloudy
7:01 AM 27.0 °F - 26.1 °F 96% 30.35 in 1.5 mi Calm Calm - N/A   Mostly Cloudy
7:13 AM 27.0 °F 23.0 °F 26.1 °F 96% 30.35 in 0.5 mi South 3.5 mph - N/A Fog Light Freezing Fog
7:55 AM 28.9 °F 25.2 °F 27.0 °F 92% 30.38 in 0.2 mi NNE 3.5 mph - N/A Fog Light Freezing Fog
9:55 AM 36.0 °F - 36.0 °F 100% 30.41 in 0.8 mi Calm Calm - N/A   Overcast
10:01 AM 37.0 °F - 37.0 °F 100% 30.39 in 2.5 mi Calm Calm - N/A   Mostly Cloudy
10:08 AM 37.9 °F - 37.0 °F 97% 30.39 in 9.0 mi Calm Calm - N/A   Mostly Cloudy
10:15 AM 39.0 °F - 37.9 °F 96% 30.39 in 10.0 mi Calm Calm - N/A   Scattered Clouds
10:55 AM 46.0 °F - 39.9 °F 79% 30.40 in 10.0 mi Calm Calm - N/A   Clear
11:55 AM 52.0 °F - 35.1 °F 53% 30.38 in 10.0 mi Calm Calm - N/A   Clear
12:55 PM 57.0 °F - 35.1 °F 44% 30.35 in 10.0 mi Calm Calm - N/A   Clear
1:55 PM 59.0 °F - 35.1 °F 41% 30.34 in 10.0 mi Variable 4.6 mph - N/A   Clear
2:55 PM 60.1 °F - 34.0 °F 38% 30.33 in 10.0 mi SW 6.9 mph - N/A   Clear
3:55 PM 63.0 °F - 34.0 °F 34% 30.33 in 10.0 mi NW 8.1 mph - N/A   Clear
4:55 PM 62.1 °F - 34.0 °F 35% 30.35 in 10.0 mi West 6.9 mph - N/A   Clear
5:55 PM 57.9 °F - 36.0 °F 44% 30.36 in 10.0 mi NW 3.5 mph - N/A   Clear
6:55 PM 50.0 °F - 36.0 °F 59% 30.40 in 10.0 mi NNW 3.5 mph - N/A   Clear
7:55 PM 46.0 °F 43.9 °F 35.1 °F 66% 30.42 in 10.0 mi SE 4.6 mph - N/A   Clear
8:55 PM 44.1 °F 42.5 °F 35.1 °F 71% 30.43 in 10.0 mi East 3.5 mph - N/A   Clear
9:55 PM 41.0 °F 39.0 °F 35.1 °F 79% 30.43 in 7.0 mi NE 3.5 mph - N/A   Clear
10:55 PM 37.0 °F - 34.0 °F 89% 30.43 in 10.0 mi Calm Calm - N/A   Clear
11:55 PM 34.0 °F - 32.0 °F 92% 30.43 in 10.0 mi Calm Calm - N/A   Clear